Flight Track Log - Related Links

Times and Time Zones

All times are in EDT time to prevent confusion due to time zone crossing. See the N373RS flight status page for this flight to view local times or setup timezone preferences in your user account.

Time Position Orientation Groundspeed Altitude Reporting Facility
EDT Latitude Longitude Course Direction KTS MPH feet Rate Location/Type
Fri 08:12:57 PM 41.5289 -81.7508 283° West 242 278 2,000  Level Cleveland Center
Fri 08:13:52 PM 41.5953 -81.7714 347° North 289 333 2,200 821 Climbing Cleveland Center
Fri 08:14:32 PM 41.6303 -81.8083 322° Northwest 273 314 3,300 1,500 Climbing Cleveland Center
Fri 08:15:32 PM 41.6839 -81.8733 318° Northwest 278 320 4,700 1,700 Climbing Cleveland Center
Fri 08:16:32 PM 41.6892 -81.9539 275° West 238 274 6,700 2,800 Climbing Cleveland Center
Fri 08:17:32 PM 41.6733 -82.0564 258° West 260 299 10,300 3,050 Climbing Cleveland Center
Fri 08:18:32 PM 41.6550 -82.1672 258° West 288 331 12,800 2,600 Climbing Cleveland Center
Fri 08:19:32 PM 41.6408 -82.2947 262° West 337 388 15,500 2,600 Climbing Cleveland Center
Fri 08:20:32 PM 41.6219 -82.4247 259° West 360 414 18,000 2,250 Climbing Cleveland Center
Fri 08:21:32 PM 41.6136 -82.5606 265° West 367 422 20,000 1,000 Climbing Cleveland Center
Fri 08:22:32 PM 41.6086 -82.7133 268° West 394 453 20,000  Level Cleveland Center
Fri 08:23:32 PM 41.6056 -82.8769 269° West 433 498 20,000  Level Cleveland Center
Fri 08:24:32 PM 41.5997 -83.0544 268° West 440 506 20,000  Level Cleveland Center
Fri 08:25:32 PM 41.5964 -83.2044 268° West 440 506 20,000  Level Cleveland Center
Fri 08:26:32 PM 41.6008 -83.3683 272° West 440 506 20,000  Level Cleveland Center
Fri 08:27:32 PM 41.6303 -83.5281 284° West 440 506 20,000  Level Cleveland Center
Fri 08:28:32 PM 41.6803 -83.6833 293° West 440 506 20,000  Level Cleveland Center
Fri 08:29:32 PM 41.7261 -83.8386 292° West 445 512 20,000  Level Cleveland Center
Fri 08:30:32 PM 41.7739 -83.9886 293° West 450 518 20,000  Level Cleveland Center
Fri 08:31:32 PM 41.8192 -84.1442 291° West 450 518 20,000  Level Cleveland Center
Fri 08:32:32 PM 41.8764 -84.3092 295° West 445 512 20,000 -60 Level Cleveland Center
Fri 08:33:12 PM 41.9000 -84.4011 289° West 445 512 19,900 -1,059 Descending Chicago Center
Fri 08:34:14 PM 41.9458 -84.5517 292° West 439 505 18,200 -1,839 Descending Chicago Center
Fri 08:35:16 PM 41.9861 -84.6939 291° West 425 489 16,100 -2,274 Descending Chicago Center
Fri 08:36:18 PM 42.0361 -84.8647 292° West 414 476 13,500 -2,661 Descending Chicago Center
Fri 08:37:20 PM 42.0714 -84.9875 291° West 365 420 10,600 -2,177 Descending Chicago Center
Fri 08:38:22 PM 42.1125 -85.0911 298° West 335 386 9,000 -1,645 Descending Chicago Center
Fri 08:39:24 PM 42.1519 -85.1767 302° West 298 343 7,200 -1,887 Descending Chicago Center
Fri 08:40:26 PM 42.1917 -85.2547 305° West 274 315 5,100 -1,694 Descending Chicago Center
Fri 08:41:28 PM 42.2308 -85.3286 306° West 254 292 3,700 -1,008 Descending Chicago Center
Fri 08:42:31 PM 42.2675 -85.4117 301° West 226 260 3,000 -624 Descending Chicago Center
Fri 08:43:33 PM 42.2792 -85.4781 283° West 191 220 2,400 -581 Descending Chicago Center
Fri 08:44:35 PM 42.2781 -85.5364 269° West 165 190 1,800 -532 Descending Chicago Center
Fri 08:45:37 PM 42.2456 -85.5536 201° Southwest 151 174 1,300 -484 Descending Chicago Center

Login

Don't have an account? Register now (free) for customized features, flight alerts, and more!